Regional Weather Roundup
Issued by NWS Goodland, KS

Home | Current Version | Previous Version | Graphics & Text | Print | Product List | Glossary On
Versions: 1 2 3 4 5 6 7 8 9 10 11 12 13 14 15 16 17 18 19 20 21 22 23 24 25 26 27 28 29 30 31 32 33 34 35 36 37 38 39 40 41 42 43 44 45 46 47 48 49 50
000
ASUS43 KGLD 231459
RWRGLD

GOODLAND FORECAST AREA HOURLY WEATHER ROUNDUP
NATIONAL WEATHER SERVICE GOODLAND KS
800 AM MST THU NOV 23 2017

...OFFICIAL OBSERVATIONS...

CITY           SKY/WX    TMP DP  RH WIND       PRES   REMARKS
GOODLAND KS    CLOUDY    49  39  68 W6        30.14F
HILL CITY KS   CLOUDY    45  40  82 W7        30.10S
IMPERIAL NEB   CLOUDY    45  39  79 W7        30.11F
MCCOOK NEB     CLOUDY    43  39  86 W12       30.10S
AKRON CO       CLOUDY    47  35  63 SW13      30.16S
BURLINGTON CO  SUNNY     48  39  71 W8        30.18S
LIMON CO       CLOUDY    39  34  82 N5        30.23S
$$

...UNOFFICIAL OBSERVATIONS...

CITY           SKY/WX    TMP DP  RH WIND       PRES   REMARKS
LENORA KS        N/A     47  32  56 NW8         N/A
NORTON KS      SUNNY     48  37  66 W12       30.08
SHARON SPRINGS   N/A     46  39  78 W6          N/A
KIT CARSON CO    N/A     40  34  79 CALM        N/A
YUMA CO        FAIR      43  36  75 W10       30.15S
$$




USA.gov is the U.S. government's official web portal to all federal, state and local government web resources and services.